Time,TemperatureF,DewpointF,PressureIn,WindDirection,WindDirectionDegrees,WindSpeedMPH,WindSpeedGustMPH,Humidity,HourlyPrecipIn,Conditions,Clouds,dailyrainin,SoftwareType,DateUTC
2013-08-25 00:03:00,-999.0,-99.9,30.41,SSE,158,0.0,0.0,-999,-99.99,,,-99.99,,2013-08-25 04:03:00,
2013-08-25 00:14:00,54.0,53.0,30.41,SSE,158,0.0,0.0,97,0.00,,,0.00,,2013-08-25 04:14:00,
2013-08-25 00:25:00,54.0,53.0,30.42,SSE,158,0.0,0.0,98,0.00,,,0.00,,2013-08-25 04:25:00,
2013-08-25 00:34:00,54.0,53.0,30.42,SSE,158,0.0,0.0,98,0.00,,,0.00,,2013-08-25 04:34:00,
2013-08-25 00:43:00,54.0,53.0,30.42,SSE,158,0.0,0.0,98,0.00,,,0.00,,2013-08-25 04:43:00,
2013-08-25 00:54:00,54.0,53.0,30.42,SSE,158,0.0,0.0,98,0.00,,,0.00,,2013-08-25 04:54:00,
2013-08-25 01:03:00,54.0,53.0,30.42,SSE,158,0.0,0.0,98,0.00,,,0.00,,2013-08-25 05:03:00,
2013-08-25 01:12:00,54.0,53.0,30.42,SSE,158,0.0,0.0,98,0.00,,,0.00,,2013-08-25 05:12:00,
2013-08-25 01:23:00,54.0,53.0,30.42,SSE,158,0.0,0.0,98,0.00,,,0.00,,2013-08-25 05:23:00,
2013-08-25 01:34:00,54.0,53.0,30.42,SSE,158,0.0,0.0,98,0.00,,,0.00,,2013-08-25 05:34:00,
2013-08-25 01:52:00,53.0,52.0,30.42,SSE,158,0.0,0.0,98,0.00,,,0.00,,2013-08-25 05:52:00,
2013-08-25 02:03:00,53.0,52.0,30.42,SSE,158,0.0,0.0,98,0.00,,,0.00,,2013-08-25 06:03:00,
2013-08-25 02:12:00,53.0,52.0,30.42,SSE,158,0.0,0.0,98,0.00,,,0.00,,2013-08-25 06:12:00,
2013-08-25 02:22:00,53.0,52.0,30.42,SSE,158,0.0,0.0,98,0.00,,,0.00,,2013-08-25 06:22:00,
2013-08-25 02:32:00,53.0,52.0,30.42,SSE,158,0.0,0.0,98,0.00,,,0.00,,2013-08-25 06:32:00,
2013-08-25 02:43:00,53.0,52.0,30.42,SSE,158,0.0,0.0,98,0.00,,,0.00,,2013-08-25 06:43:00,
2013-08-25 02:52:00,53.0,52.0,30.42,SSE,158,0.0,0.0,98,0.00,,,0.00,,2013-08-25 06:52:00,
2013-08-25 03:22:00,52.0,51.0,30.41,SSE,158,0.0,0.0,98,0.00,,,0.00,,2013-08-25 07:22:00,
2013-08-25 03:32:00,52.0,51.0,30.41,SSE,158,0.0,0.0,98,0.00,,,0.00,,2013-08-25 07:32:00,
2013-08-25 03:52:00,52.0,51.0,30.42,SSE,158,0.0,0.0,98,0.00,,,0.00,,2013-08-25 07:52:00,
2013-08-25 04:02:00,52.0,51.0,30.42,SSE,158,0.0,0.0,98,0.00,,,0.00,,2013-08-25 08:02:00,
2013-08-25 04:12:00,52.0,51.0,30.42,SSE,158,0.0,0.0,98,0.00,,,0.00,,2013-08-25 08:12:00,
2013-08-25 04:21:00,52.0,52.0,30.42,SSE,158,0.0,0.0,99,0.00,,,0.00,,2013-08-25 08:21:00,
2013-08-25 04:32:00,52.0,52.0,30.42,SSE,158,0.0,0.0,99,0.00,,,0.00,,2013-08-25 08:32:00,
2013-08-25 04:52:00,52.0,52.0,30.42,SSE,158,0.0,0.0,99,0.00,,,0.00,,2013-08-25 08:52:00,
2013-08-25 05:02:00,52.0,52.0,30.42,SSE,158,0.0,0.0,99,0.00,,,0.00,,2013-08-25 09:02:00,
2013-08-25 05:11:00,52.0,52.0,30.42,SSE,158,0.0,0.0,99,0.00,,,0.00,,2013-08-25 09:11:00,
2013-08-25 05:22:00,52.0,52.0,30.42,SSE,158,0.0,0.0,99,0.00,,,0.00,,2013-08-25 09:22:00,
2013-08-25 05:34:00,52.0,52.0,30.42,SSE,158,0.0,0.0,99,0.00,,,0.00,,2013-08-25 09:34:00,
2013-08-25 05:44:00,52.0,52.0,30.42,SSE,158,0.0,0.0,99,0.00,,,0.00,,2013-08-25 09:44:00,
2013-08-25 05:55:00,52.0,52.0,30.44,SSE,158,0.0,0.0,99,0.00,,,0.00,,2013-08-25 09:55:00,
2013-08-25 06:03:00,52.0,52.0,30.44,SSE,158,0.0,0.0,99,0.00,,,0.00,,2013-08-25 10:03:00,
2013-08-25 06:12:00,52.0,52.0,30.44,SSE,158,0.0,0.0,99,0.00,,,0.00,,2013-08-25 10:12:00,
2013-08-25 06:23:00,52.0,52.0,30.44,SSE,158,0.0,0.0,99,0.00,,,0.00,,2013-08-25 10:23:00,
2013-08-25 06:33:00,52.0,52.0,30.44,SSE,158,0.0,0.0,99,0.00,,,0.00,,2013-08-25 10:33:00,
2013-08-25 06:53:00,52.0,52.0,30.46,SSE,158,0.0,0.0,99,0.00,,,0.00,,2013-08-25 10:53:00,
2013-08-25 07:03:00,52.0,52.0,30.46,SSE,158,0.0,0.0,99,0.00,,,0.00,,2013-08-25 11:03:00,
2013-08-25 07:12:00,52.0,52.0,30.46,SSE,158,0.0,0.0,99,0.00,,,0.00,,2013-08-25 11:12:00,
2013-08-25 07:22:00,52.0,52.0,30.47,SSE,158,0.0,0.0,99,0.00,,,0.00,,2013-08-25 11:22:00,
2013-08-25 07:33:00,52.0,52.0,30.47,SSE,158,0.0,0.0,99,0.00,,,0.00,,2013-08-25 11:33:00,
2013-08-25 07:52:00,53.0,53.0,30.48,SSE,158,0.0,0.0,99,0.00,,,0.00,,2013-08-25 11:52:00,
2013-08-25 08:02:00,53.0,53.0,30.48,SSE,158,0.0,0.0,99,0.00,,,0.00,,2013-08-25 12:02:00,
2013-08-25 08:12:00,53.0,53.0,30.48,SSE,158,0.0,0.0,99,0.00,,,0.00,,2013-08-25 12:12:00,
2013-08-25 08:22:00,53.0,53.0,30.50,SSE,158,0.0,0.0,99,0.00,,,0.00,,2013-08-25 12:22:00,
2013-08-25 08:32:00,53.0,53.0,30.50,SSE,158,0.0,0.0,99,0.00,,,0.00,,2013-08-25 12:32:00,
2013-08-25 08:43:00,53.0,53.0,30.50,SSE,158,0.0,0.0,99,0.00,,,0.00,,2013-08-25 12:43:00,
2013-08-25 08:52:00,56.0,56.0,30.50,SSE,158,0.0,0.0,99,0.00,,,0.00,,2013-08-25 12:52:00,
2013-08-25 09:12:00,56.0,56.0,30.50,SSE,158,0.0,0.0,99,0.00,,,0.00,,2013-08-25 13:12:00,
2013-08-25 09:22:00,60.0,60.0,30.49,SSE,158,0.0,0.0,100,0.00,,,0.00,,2013-08-25 13:22:00,
2013-08-25 09:32:00,60.0,60.0,30.49,SSE,158,0.0,0.0,100,0.00,,,0.00,,2013-08-25 13:32:00,
2013-08-25 09:52:00,63.0,61.0,30.50,SSE,158,0.0,1.0,93,0.00,,,0.00,,2013-08-25 13:52:00,
2013-08-25 10:02:00,63.0,61.0,30.50,SSE,158,0.0,1.0,93,0.00,,,0.00,,2013-08-25 14:02:00,
2013-08-25 10:26:00,64.0,61.0,30.50,SSE,158,0.0,0.0,90,0.00,,,0.00,,2013-08-25 14:26:00,
2013-08-25 10:32:00,64.0,61.0,30.50,SSE,158,0.0,0.0,90,0.00,,,0.00,,2013-08-25 14:32:00,
2013-08-25 10:52:00,66.0,61.0,30.48,West,270,0.0,3.0,83,0.00,,,0.00,,2013-08-25 14:52:00,
2013-08-25 11:01:00,66.0,61.0,30.48,West,270,0.0,3.0,83,0.00,,,0.00,,2013-08-25 15:01:00,
2013-08-25 11:23:00,69.0,60.0,30.49,NE,45,2.0,3.0,74,0.00,,,0.00,,2013-08-25 15:23:00,
2013-08-25 11:35:00,69.0,60.0,30.49,NE,45,2.0,3.0,74,0.00,,,0.00,,2013-08-25 15:35:00,
2013-08-25 11:54:00,70.0,60.0,30.48,ENE,68,0.0,6.0,70,0.00,,,0.00,,2013-08-25 15:54:00,
2013-08-25 12:05:00,70.0,60.0,30.48,ENE,68,0.0,6.0,70,0.00,,,0.00,,2013-08-25 16:05:00,
2013-08-25 12:14:00,70.0,60.0,30.48,ENE,68,0.0,6.0,70,0.00,,,0.00,,2013-08-25 16:14:00,
2013-08-25 12:24:00,70.0,60.0,30.48,ENE,68,0.0,6.0,70,0.00,,,0.00,,2013-08-25 16:24:00,
2013-08-25 12:54:00,72.0,54.0,30.47,SE,135,1.0,3.0,54,0.00,,,0.00,,2013-08-25 16:54:00,
2013-08-25 13:04:00,72.0,54.0,30.47,SE,135,1.0,3.0,54,0.00,,,0.00,,2013-08-25 17:04:00,
2013-08-25 13:12:00,72.0,54.0,30.47,SE,135,1.0,3.0,54,0.00,,,0.00,,2013-08-25 17:12:00,
2013-08-25 13:23:00,72.0,53.0,30.47,West,270,2.0,3.0,52,0.00,,,0.00,,2013-08-25 17:23:00,
2013-08-25 13:34:00,72.0,53.0,30.47,West,270,2.0,3.0,52,0.00,,,0.00,,2013-08-25 17:34:00,
2013-08-25 13:53:00,73.0,53.0,30.45,ESE,113,2.0,3.0,49,0.00,,,0.00,,2013-08-25 17:53:00,
2013-08-25 14:02:00,73.0,53.0,30.45,ESE,113,2.0,3.0,49,0.00,,,0.00,,2013-08-25 18:02:00,
2013-08-25 14:12:00,73.0,53.0,30.45,ESE,113,2.0,3.0,49,0.00,,,0.00,,2013-08-25 18:12:00,
2013-08-25 14:22:00,73.0,54.0,30.45,ESE,113,1.0,2.0,52,0.00,,,0.00,,2013-08-25 18:22:00,
2013-08-25 14:32:00,73.0,54.0,30.45,ESE,113,1.0,2.0,52,0.00,,,0.00,,2013-08-25 18:32:00,
2013-08-25 14:43:00,73.0,54.0,30.45,ESE,113,1.0,2.0,52,0.00,,,0.00,,2013-08-25 18:43:00,
2013-08-25 14:52:00,73.0,53.0,30.45,East,90,0.0,5.0,49,0.00,,,0.00,,2013-08-25 18:52:00,
2013-08-25 15:02:00,73.0,53.0,30.45,East,90,0.0,5.0,49,0.00,,,0.00,,2013-08-25 19:02:00,
2013-08-25 15:12:00,73.0,53.0,30.45,East,90,0.0,5.0,49,0.00,,,0.00,,2013-08-25 19:12:00,
2013-08-25 15:22:00,73.0,53.0,30.44,ENE,68,0.0,3.0,50,0.00,,,0.00,,2013-08-25 19:22:00,
2013-08-25 15:32:00,73.0,53.0,30.44,ENE,68,0.0,3.0,50,0.00,,,0.00,,2013-08-25 19:32:00,
2013-08-25 15:53:00,73.0,54.0,30.42,SE,135,1.0,5.0,51,0.00,,,0.00,,2013-08-25 19:53:00,
2013-08-25 16:03:00,73.0,54.0,30.42,SE,135,1.0,5.0,51,0.00,,,0.00,,2013-08-25 20:03:00,
2013-08-25 16:13:00,73.0,54.0,30.42,SE,135,1.0,5.0,51,0.00,,,0.00,,2013-08-25 20:13:00,
2013-08-25 16:23:00,74.0,56.0,30.41,SSE,158,1.0,5.0,53,0.00,,,0.00,,2013-08-25 20:23:00,
2013-08-25 16:33:00,74.0,56.0,30.41,SSE,158,1.0,5.0,53,0.00,,,0.00,,2013-08-25 20:33:00,
2013-08-25 16:43:00,74.0,56.0,30.41,SSE,158,1.0,5.0,53,0.00,,,0.00,,2013-08-25 20:43:00,
2013-08-25 16:53:00,71.0,58.0,30.41,SSW,203,1.0,2.0,63,0.00,,,0.00,,2013-08-25 20:53:00,
2013-08-25 17:02:00,71.0,58.0,30.41,SSW,203,1.0,2.0,63,0.00,,,0.00,,2013-08-25 21:02:00,
2013-08-25 17:22:00,71.0,58.0,30.41,SSW,203,0.0,1.0,64,0.00,,,0.00,,2013-08-25 21:22:00,
2013-08-25 17:34:00,71.0,58.0,30.41,SSW,203,0.0,1.0,64,0.00,,,0.00,,2013-08-25 21:34:00,
2013-08-25 17:54:00,72.0,56.0,30.41,WSW,248,0.0,3.0,58,0.00,,,0.00,,2013-08-25 21:54:00,
2013-08-25 18:03:00,72.0,56.0,30.41,WSW,248,0.0,3.0,58,0.00,,,0.00,,2013-08-25 22:03:00,
2013-08-25 18:24:00,71.0,55.0,30.41,East,90,0.0,2.0,58,0.00,,,0.00,,2013-08-25 22:24:00,
2013-08-25 18:34:00,71.0,55.0,30.41,East,90,0.0,2.0,58,0.00,,,0.00,,2013-08-25 22:34:00,
2013-08-25 18:53:00,69.0,57.0,30.40,SE,135,0.0,1.0,65,0.00,,,0.00,,2013-08-25 22:53:00,
2013-08-25 19:03:00,69.0,57.0,30.40,SE,135,0.0,1.0,65,0.00,,,0.00,,2013-08-25 23:03:00,
2013-08-25 19:12:00,69.0,57.0,30.40,SE,135,0.0,1.0,65,0.00,,,0.00,,2013-08-25 23:12:00,
2013-08-25 19:23:00,65.0,56.0,30.40,SE,135,0.0,0.0,73,0.00,,,0.00,,2013-08-25 23:23:00,
2013-08-25 19:34:00,65.0,56.0,30.40,SE,135,0.0,0.0,73,0.00,,,0.00,,2013-08-25 23:34:00,
2013-08-25 19:53:00,63.0,57.0,30.39,SE,135,0.0,0.0,81,0.00,,,0.00,,2013-08-25 23:53:00,
2013-08-25 20:02:00,63.0,57.0,30.39,SE,135,0.0,0.0,81,0.00,,,0.00,,2013-08-26 00:02:00,
2013-08-25 20:11:00,63.0,57.0,30.39,SE,135,0.0,0.0,81,0.00,,,0.00,,2013-08-26 00:11:00,
2013-08-25 20:22:00,60.0,57.0,30.40,SE,135,0.0,0.0,89,0.00,,,0.00,,2013-08-26 00:22:00,
2013-08-25 20:32:00,60.0,57.0,30.40,SE,135,0.0,0.0,89,0.00,,,0.00,,2013-08-26 00:32:00,
2013-08-25 20:42:00,60.0,57.0,30.40,SE,135,0.0,0.0,89,0.00,,,0.00,,2013-08-26 00:42:00,
2013-08-25 20:52:00,58.0,56.0,30.40,SE,135,0.0,1.0,92,0.00,,,0.00,,2013-08-26 00:52:00,
2013-08-25 21:02:00,58.0,56.0,30.40,SE,135,0.0,1.0,92,0.00,,,0.00,,2013-08-26 01:02:00,
2013-08-25 21:11:00,58.0,56.0,30.40,SE,135,0.0,1.0,92,0.00,,,0.00,,2013-08-26 01:11:00,
2013-08-25 21:22:00,57.0,56.0,30.41,SE,135,0.0,0.0,95,0.00,,,0.00,,2013-08-26 01:22:00,
2013-08-25 21:32:00,57.0,56.0,30.41,SE,135,0.0,0.0,95,0.00,,,0.00,,2013-08-26 01:32:00,
2013-08-25 21:42:00,57.0,56.0,30.41,SE,135,0.0,0.0,95,0.00,,,0.00,,2013-08-26 01:42:00,
2013-08-25 21:52:00,56.0,55.0,30.41,SE,135,0.0,1.0,96,0.00,,,0.00,,2013-08-26 01:52:00,
2013-08-25 22:02:00,56.0,55.0,30.41,SE,135,0.0,1.0,96,0.00,,,0.00,,2013-08-26 02:02:00,
2013-08-25 22:22:00,56.0,55.0,30.42,SE,135,0.0,0.0,96,0.00,,,0.00,,2013-08-26 02:22:00,
2013-08-25 22:32:00,56.0,55.0,30.42,SE,135,0.0,0.0,96,0.00,,,0.00,,2013-08-26 02:32:00,
2013-08-25 22:42:00,56.0,55.0,30.42,SE,135,0.0,0.0,96,0.00,,,0.00,,2013-08-26 02:42:00,
2013-08-25 22:52:00,55.0,54.0,30.42,SE,135,0.0,0.0,97,0.00,,,0.00,,2013-08-26 02:52:00,
2013-08-25 23:02:00,55.0,54.0,30.42,SE,135,0.0,0.0,97,0.00,,,0.00,,2013-08-26 03:02:00,
2013-08-25 23:11:00,55.0,54.0,30.42,SE,135,0.0,0.0,97,0.00,,,0.00,,2013-08-26 03:11:00,
2013-08-25 23:22:00,55.0,54.0,30.42,SE,135,0.0,1.0,97,0.00,,,0.00,,2013-08-26 03:22:00,
2013-08-25 23:34:00,55.0,54.0,30.42,SE,135,0.0,1.0,97,0.00,,,0.00,,2013-08-26 03:34:00,
2013-08-25 23:44:00,55.0,54.0,30.42,SE,135,0.0,1.0,97,0.00,,,0.00,,2013-08-26 03:44:00,
2013-08-25 23:56:00,55.0,54.0,30.42,SE,135,0.0,0.0,97,0.00,,,0.00,,2013-08-26 03:56:00,